Weather History for Monte Cimone, Italy

Change the Weather History Date:

Monday, October 28, 2013

  Actual Average Record
Temperature  
Mean Temperature 46 °F -  
Max Temperature 47 °F 36 °F 55 °F (2005)
Min Temperature 44 °F 28 °F 14 °F (1997)
Degree Days  
Heating Degree Days 20    
Moisture  
Dew Point 44 °F    
Average Humidity 91    
Maximum Humidity 100    
Minimum Humidity 75    
Precipitation  
Precipitation 0.00 in 0.11 in - ()
Sea Level Pressure  
Sea Level Pressure 30.18 in    
Wind  
Wind Speed 36 mph ()    
Max Wind Speed 55 mph    
Max Gust Speed -    
Visibility 2.2 miles    
Events Fog    
Averages and records for this station are not official NWS values.
T = Trace of Precipitation, MM = Missing Value Source: Averaged Metar Reports

Daily Weather History Graph

Daily Weather History Graph

Search for Another Location

Airport:

Trip Planner

Search our weather history database for the weather conditions in past years. The results will help you decide how hot, cold, wet, or windy it might be!

Date:

Astronomy

Oct. 28, 2013 Rise Set
Actual Time 6:48 AM CET 5:12 PM CET
Civil Twilight 6:18 AM CET 5:42 PM CET
Nautical Twilight 5:44 AM CET 6:16 PM CET
Astronomical Twilight 5:11 AM CET 6:49 PM CET
Moon 12:12 AM CET (10/28) 1:57 PM CET (10/28)
Length of Visible Light 11h 23m
Length of Day
10h 23m
Last Quarter, 36% of the Moon is Illuminated
Oct 28
Last Quarter
Nov 3
New
Nov 10
First Quarter
Nov 17
Full
Nov 25
Last Quarter

Hourly Weather History & Observations

Time (CET) Temp. Windchill Dew Point Humidity Pressure Visibility Wind Dir Wind Speed Gust Speed Precip Events Conditions
12:55 AM 46.4 °F 36.0 °F 44.6 °F 93% 30.24 in 0.0 mi West 39.1 mph - N/A Fog Fog
1:00 AM 47 °F - 45 °F 91%  in 0 mi West 39.1 mph - - Fog Heavy Fog
1:55 AM 46.4 °F 35.6 °F 44.6 °F 93% 30.24 in 0.0 mi West 42.6 mph - N/A Fog Fog
2:55 AM 46.4 °F 35.3 °F 44.6 °F 93% 30.21 in 0.0 mi West 44.9 mph - N/A Fog Fog
3:55 AM 46.4 °F 35.6 °F 44.6 °F 93% 30.18 in 0.0 mi West 42.6 mph - N/A Fog Fog
4:55 AM 46.4 °F 35.5 °F 44.6 °F 93% 30.18 in 0.0 mi West 43.7 mph - N/A Fog Fog
5:55 AM 46.4 °F 35.7 °F 44.6 °F 93% 30.18 in 0.0 mi West 41.4 mph - N/A Fog Fog
6:55 AM 46.4 °F 35.5 °F 44.6 °F 93% 30.18 in 0.0 mi West 43.7 mph - N/A Fog Fog
7:00 AM 46 °F - 45 °F 94%  in 0 mi West 43.7 mph - - Fog Heavy Fog
7:55 AM 46.4 °F - 44.6 °F 93% 30.18 in 0.0 mi Calm Calm - N/A Fog Fog
8:55 AM 48.2 °F - 41.0 °F 76% 30.21 in 6.2 mi West 38.0 mph - N/A   Scattered Clouds
9:55 AM 48.2 °F - 44.6 °F 87% 30.21 in 6.2 mi West 34.5 mph - N/A   Partly Cloudy
10:55 AM 46.4 °F 36.9 °F 39.2 °F 76% 30.24 in 6.2 mi West 32.2 mph - N/A   Scattered Clouds
11:55 AM 46.4 °F 36.7 °F 42.8 °F 87% 30.21 in 6.2 mi West 33.4 mph - N/A   Scattered Clouds
12:55 PM 46.4 °F 36.3 °F 41.0 °F 81% 30.15 in 6.2 mi West 36.8 mph - N/A   Scattered Clouds
1:00 PM 46 °F - 41 °F 75%  in 9 mi West 36.8 mph - -   Partly Cloudy
1:55 PM 46.4 °F 35.1 °F 42.8 °F 87% 30.15 in 6.2 mi West 47.2 mph - N/A   Scattered Clouds
2:55 PM 46.4 °F 34.5 °F 42.8 °F 87% 30.15 in 6.2 mi West 54.1 mph - N/A   Scattered Clouds
3:55 PM 46.4 °F 34.6 °F 42.8 °F 87% 30.15 in 6.2 mi West 52.9 mph - N/A   Mostly Cloudy
4:55 PM 44.6 °F 31.8 °F 44.6 °F 100% 30.15 in - West 55.2 mph - N/A   Unknown
5:55 PM 44.6 °F 32.1 °F 44.6 °F 100% 30.15 in 0.0 mi West 51.8 mph - N/A Fog Fog
6:55 PM 44.6 °F 32.2 °F 44.6 °F 100% 30.18 in 0.0 mi West 50.6 mph - N/A Fog Fog
7:00 PM 45 °F - 44 °F 96%  in 0 mi West 50.6 mph - - Fog Heavy Fog
7:55 PM 44.6 °F 31.9 °F 44.6 °F 100% 30.18 in 0.0 mi West 54.1 mph - N/A Fog Fog
8:55 PM 44.6 °F 37.8 °F 44.6 °F 100% 30.18 in 0.0 mi West 15.0 mph - N/A Fog Fog
9:55 PM 44.6 °F 32.7 °F 44.6 °F 100% 30.18 in 0.0 mi West 46.0 mph - N/A Fog Fog
10:55 PM 44.6 °F 33.1 °F 42.8 °F 93% 30.18 in 0.0 mi West 42.6 mph - N/A Fog Fog
11:55 PM 44.6 °F 33.3 °F 42.8 °F 93% 30.15 in 0.0 mi West 40.3 mph - N/A Fog Fog